Waarnemingen

Advertentie
Mijn weer
Chievres, België (6432): temperatuur & dauwpunt: 12.01.2019 00:00:00 - 18.01.2019 00:00:00 (CET)Chievres, België (6432): windsnelheid & windstoten: 12.01.2019 00:00:00 - 18.01.2019 00:00:00 (CET)Chievres, België (6432): windrichting: 12.01.2019 00:00:00 - 18.01.2019 00:00:00 (CET)Chievres, België (6432): luchtdruk: 12.01.2019 00:00:00 - 18.01.2019 00:00:00 (CET)Chievres, België (6432): zicht: 12.01.2019 00:00:00 - 18.01.2019 00:00:00 (CET)
Datum & Tijd tt [°C] td [°C] ff [km/u] ff [kn] fx [km/u] fx [kn] dd ppp [hPa] vv [km]
18.01.2019 00:00:00 0,3 0,2 5 3 32 18 NNW 1017,6 8
17.01.2019 23:00:00 2,0 0,5 11 6 18 10 W 1016,7 19
17.01.2019 22:00:00 0,5 0,1 7 4 - - W 1016,2 20
17.01.2019 21:00:00 1,3 0,4 11 6 29 16 WNW 1015,7 3,9
17.01.2019 20:00:00 1,2 0,4 18 10 47 25 W 1015,0 19
17.01.2019 19:00:00 1,5 0,3 32 18 - - WNW 1014,0 13
17.01.2019 18:00:00 3,2 -0,4 25 14 40 21 W 1012,3 20
17.01.2019 17:00:00 3,2 -0,8 25 14 50 27 WNW 1011,7 20
17.01.2019 16:00:00 4,0 -0,5 29 16 - - WNW 1010,6 10
17.01.2019 15:00:00 3,6 0,1 25 14 43 23 WNW 1009,7 19
17.01.2019 14:00:00 4,6 1,8 22 12 40 21 WNW 1008,5 20
17.01.2019 13:00:00 3,9 2,0 29 16 - - WNW 1007,7 10
17.01.2019 12:00:00 5,0 3,1 22 12 36 19 WNW 1006,8 19
17.01.2019 11:00:00 4,3 3,2 25 14 36 19 W 1005,8 13
17.01.2019 10:00:00 4,3 3,1 18 10 - - ZW 1004,6 20
17.01.2019 09:00:00 4,6 3,6 22 12 40 21 WZW 1004,0 18
17.01.2019 08:00:00 5,1 4,2 25 14 32 18 ZW 1003,2 11
17.01.2019 07:00:00 4,7 3,8 14 8 - - ZZW 1003,6 19
17.01.2019 06:00:00 4,5 4,1 18 10 25 14 ZZW 1004,0 10
17.01.2019 05:00:00 4,4 4,1 14 8 22 12 ZZW 1004,5 5
17.01.2019 04:00:00 4,9 4,6 11 6 - - ZZW 1004,7 6
17.01.2019 03:00:00 5,5 4,6 11 6 22 12 ZW 1005,0 13
17.01.2019 02:00:00 5,6 4,8 14 8 36 19 WZW 1005,0 20
17.01.2019 01:00:00 5,6 5,1 22 12 - - WZW 1004,7 3,2
17.01.2019 00:00:00 5,6 4,4 29 16 43 23 ZW 1004,3 13
16.01.2019 23:00:00 5,0 4,0 29 16 47 25 ZZW 1004,3 6
16.01.2019 22:00:00 4,8 3,7 29 16 - - ZZW 1004,7 10
16.01.2019 21:00:00 5,6 2,5 29 16 43 23 ZZW 1005,0 16
16.01.2019 20:00:00 5,5 2,3 25 14 40 21 ZZW 1005,2 17
16.01.2019 19:00:00 5,3 2,4 25 14 - - ZZW 1006,1 17
16.01.2019 18:00:00 5,3 2,2 25 14 40 21 ZZW 1006,6 16
16.01.2019 17:00:00 5,5 2,3 25 14 40 21 ZZW 1007,1 16
16.01.2019 16:00:00 5,5 2,2 29 16 - - ZW 1007,7 17
16.01.2019 15:00:00 5,5 2,4 18 10 40 21 ZW 1008,1 17
16.01.2019 14:00:00 5,3 1,6 29 16 43 23 ZW 1009,2 20
16.01.2019 13:00:00 5,3 1,7 29 16 - - ZZW 1010,2 20
16.01.2019 12:00:00 5,2 2,3 22 12 40 21 ZZW 1011,6 20
16.01.2019 11:00:00 4,8 2,1 25 14 40 21 ZZW 1012,2 17
16.01.2019 10:00:00 4,6 2,3 25 14 - - ZZW 1013,0 18
16.01.2019 09:00:00 5,0 2,5 22 12 32 18 ZZW 1013,1 18
16.01.2019 08:00:00 5,2 2,6 22 12 36 19 ZZW 1013,6 20
16.01.2019 07:00:00 5,5 2,3 25 14 - - ZZW 1014,0 20
16.01.2019 06:00:00 5,6 2,5 22 12 29 16 ZZW 1014,3 20
16.01.2019 05:00:00 5,8 3,0 18 10 29 16 ZZW 1015,2 20
16.01.2019 04:00:00 5,9 3,3 22 12 - - ZZW 1015,8 20
16.01.2019 03:00:00 6,0 3,5 22 12 32 18 ZW 1016,6 20
16.01.2019 02:00:00 6,0 3,8 22 12 32 18 ZZW 1016,8 20
16.01.2019 01:00:00 6,0 4,1 22 12 - - ZW 1017,6 17
16.01.2019 00:00:00 6,0 4,1 18 10 29 16 ZW 1018,1 20
15.01.2019 23:00:00 5,9 4,4 18 10 25 14 ZW 1018,6 18
15.01.2019 22:00:00 5,6 4,9 18 10 - - ZW 1019,0 2,3
15.01.2019 21:00:00 5,8 5,4 18 10 29 16 ZZW 1019,3 4,7
15.01.2019 20:00:00 6,1 5,7 21 11 32 18 ZW 1019,8 7
15.01.2019 19:00:00 6,0 5,6 18 10 - - ZZW 1019,8 8
15.01.2019 18:00:00 6,0 5,5 14 8 29 16 ZW 1020,3 5
15.01.2019 17:00:00 6,0 5,0 18 10 25 14 ZZW 1020,5 17
15.01.2019 16:00:00 6,3 4,8 18 10 - - WZW 1020,7 20
15.01.2019 15:00:00 6,5 4,2 18 10 29 16 WZW 1020,7 15
15.01.2019 14:00:00 6,9 3,7 18 10 29 16 WZW 1021,0 20
15.01.2019 13:00:00 7,0 3,7 18 10 - - WZW 1021,5 20
15.01.2019 12:00:00 6,8 3,5 18 10 29 16 WZW 1021,8 19
15.01.2019 11:00:00 5,6 3,5 18 10 25 14 WZW 1022,3 20
15.01.2019 10:00:00 3,7 2,9 11 6 - - ZW 1022,6 15
15.01.2019 09:00:00 3,0 2,5 11 6 14 8 ZW 1022,3 12
15.01.2019 08:00:00 3,9 3,2 11 6 14 8 ZW 1022,3 12
15.01.2019 07:00:00 4,3 3,6 11 6 - - ZW 1022,2 11
15.01.2019 06:00:00 4,0 3,5 11 6 14 8 ZW 1022,6 8
15.01.2019 05:00:00 3,9 3,3 9 5 14 8 ZW 1023,0 7
15.01.2019 04:00:00 3,7 3,1 11 6 - - ZW 1023,2 8
15.01.2019 03:00:00 2,0 1,9 8 4 11 6 ZW 1023,3 6
15.01.2019 02:00:00 1,7 1,5 7 4 11 6 ZZW 1023,1 4,9
15.01.2019 01:00:00 2,0 1,8 4 2 - - N 1023,5 1,3
15.01.2019 00:00:00 3,8 3,5 2 1 11 6 - 1023,3 4,9
14.01.2019 23:00:00 3,5 3,0 7 4 7 4 ZZW 1023,1 7
14.01.2019 22:00:00 3,0 2,3 4 2 - - N 1023,0 13
14.01.2019 21:00:00 3,7 2,6 7 4 11 6 WZW 1022,8 20
14.01.2019 20:00:00 3,7 2,2 4 2 14 8 N 1022,7 20
14.01.2019 19:00:00 4,0 2,2 11 6 - - WNW 1022,3 20
14.01.2019 18:00:00 5,1 3,1 11 6 18 10 WNW 1021,7 20
14.01.2019 17:00:00 5,8 2,3 11 6 22 12 NNW 1021,3 20
14.01.2019 16:00:00 6,0 2,9 18 10 - - NW 1020,6 20
14.01.2019 15:00:00 6,5 3,5 18 10 50 27 NW 1019,7 20
14.01.2019 14:00:00 7,9 3,4 18 10 36 19 NW 1019,1 20
14.01.2019 13:00:00 7,8 4,2 25 14 - - NW 1018,5 20
14.01.2019 12:00:00 7,0 4,2 25 14 36 19 WNW 1018,1 17
14.01.2019 11:00:00 6,7 3,8 22 12 32 18 WNW 1017,5 20
14.01.2019 10:00:00 5,9 3,7 18 10 - - WNW 1017,1 16
14.01.2019 09:00:00 5,9 3,4 18 10 29 16 WNW 1016,1 18
14.01.2019 08:00:00 6,3 3,4 25 14 32 18 NW 1015,3 20
14.01.2019 07:00:00 6,6 3,8 22 12 - - NW 1014,8 18
14.01.2019 06:00:00 6,8 4,0 18 10 36 19 NW 1013,8 18
14.01.2019 05:00:00 7,3 4,0 25 14 36 19 NW 1013,7 17
14.01.2019 04:00:00 7,2 4,2 25 14 - - WNW 1013,2 19
14.01.2019 03:00:00 7,2 4,0 22 12 36 19 WNW 1012,3 19
14.01.2019 02:00:00 7,5 3,9 25 14 40 21 NW 1011,7 18
14.01.2019 01:00:00 7,8 3,9 22 12 - - WNW 1011,0 20
14.01.2019 00:00:00 7,9 3,7 29 16 47 25 NW 1010,6 20
13.01.2019 23:00:00 8,6 6,0 29 16 47 25 WNW 1009,6 20
13.01.2019 22:00:00 8,6 6,4 32 18 - - NW 1009,2 20
13.01.2019 21:00:00 8,9 7,9 25 14 40 21 W 1009,0 4,2
13.01.2019 20:00:00 9,3 7,7 22 12 43 23 W 1009,0 20
13.01.2019 19:00:00 9,3 7,5 22 12 - - W 1009,3 19
13.01.2019 18:00:00 9,3 7,2 25 14 36 19 W 1009,8 20
13.01.2019 17:00:00 9,3 7,3 25 14 43 23 W 1009,8 20
13.01.2019 16:00:00 9,6 7,6 29 16 - - W 1009,3 10
13.01.2019 15:00:00 9,5 8,0 25 14 43 23 W 1009,6 20
13.01.2019 14:00:00 9,3 8,4 29 16 43 23 W 1010,2 10
13.01.2019 13:00:00 9,9 7,9 25 14 - - W 1011,3 18
13.01.2019 12:00:00 9,8 7,7 29 16 40 21 W 1012,2 19
13.01.2019 11:00:00 9,3 7,3 26 14 40 21 W 1012,6 10
13.01.2019 10:00:00 9,1 7,1 25 14 - - W 1013,3 20
13.01.2019 09:00:00 8,5 6,9 18 10 36 19 W 1013,8 19
13.01.2019 08:00:00 8,6 6,7 25 14 36 19 W 1013,6 20
13.01.2019 07:00:00 8,5 6,9 18 10 - - W 1013,7 20
13.01.2019 06:00:00 8,5 7,3 18 10 29 16 W 1015,0 14
13.01.2019 05:00:00 7,8 7,5 18 10 29 16 W 1015,1 3,4
13.01.2019 04:00:00 7,8 7,1 22 12 - - W 1016,0 5
13.01.2019 03:00:00 7,4 7,1 18 10 25 14 W 1016,2 7
13.01.2019 02:00:00 7,1 6,8 18 10 29 16 W 1016,5 8
13.01.2019 01:00:00 7,0 6,4 18 10 - - W 1017,1 3,1
13.01.2019 00:00:00 7,6 5,8 18 10 29 16 W 1017,6 3,5
12.01.2019 23:00:00 7,6 6,1 18 10 25 14 W 1017,7 18
12.01.2019 22:00:00 7,4 6,4 14 8 - - WZW 1018,0 15
12.01.2019 21:00:00 7,5 6,3 14 8 25 14 W 1018,3 16
12.01.2019 20:00:00 7,6 6,6 18 10 32 18 W 1018,8 17
12.01.2019 19:00:00 7,9 6,8 18 10 - - W 1018,8 17
12.01.2019 18:00:00 7,8 6,9 18 10 29 16 W 1019,0 19
12.01.2019 17:00:00 7,8 7,0 18 10 32 18 W 1019,2 14
12.01.2019 16:00:00 7,8 7,2 22 12 - - W 1019,5 9
12.01.2019 15:00:00 7,8 7,2 22 12 32 18 W 1020,0 15
12.01.2019 14:00:00 6,9 6,4 18 10 29 16 WZW 1020,8 3,2
12.01.2019 13:00:00 6,5 5,4 18 10 - - ZW 1022,1 11
12.01.2019 12:00:00 7,0 4,5 22 12 32 18 WZW 1023,2 20
12.01.2019 11:00:00 7,0 3,8 22 12 40 21 WZW 1023,5 20
12.01.2019 10:00:00 6,0 3,7 18 10 - - ZW 1024,7 13
12.01.2019 09:00:00 5,4 3,6 14 8 22 12 ZW 1025,0 7
12.01.2019 08:00:00 5,3 3,2 11 6 18 10 WZW 1025,5 8
12.01.2019 07:00:00 5,2 3,4 11 6 - - WZW 1026,0 7
12.01.2019 06:00:00 5,5 3,4 14 8 22 12 W 1026,5 9
12.01.2019 05:00:00 5,4 4,3 11 6 18 10 WZW 1026,7 6
12.01.2019 04:00:00 5,5 4,7 7 4 - - WZW 1027,2 4,8
12.01.2019 03:00:00 5,8 5,1 11 6 14 8 WZW 1028,0 4,8
12.01.2019 02:00:00 5,7 5,1 13 7 18 10 W 1028,2 4,7
12.01.2019 01:00:00 5,9 5,2 13 7 - - W 1028,4 7
12.01.2019 00:00:00 5,6 4,8 11 6 18 10 W 1028,5 17

tt = temperatuur
td = dauwpunt
ff = windsnelheid
fx = windstoten
dd = windrichting
ppp = luchtdruk
vv = zicht

Weerstations in de omgeving